This is the latest recevied weather packets stored in our database for station/object KF0FSA. If no packets are shown the sender has not sent any weather packets the latest 1 day(s).
| Time | Temp. | Humidity | Pressure | Rain* | Wind** | Luminosity | Snow |
|---|---|---|---|---|---|---|---|
| 1778051093 | 1.67° C | 67% | 962.2 hPa | 0 mm | 0.45 m/s, 297° | 0 W/m² | - |
| 1778050793 | 1.67° C | 67% | 962.2 hPa | 0 mm | 0.45 m/s, 197° | 0 W/m² | - |
| 1778050494 | 1.67° C | 66% | 962 hPa | 0 mm | 0.45 m/s, 294° | 0 W/m² | - |
| 1778050193 | 1.67° C | 65% | 961.9 hPa | 0 mm | 0.45 m/s, 284° | 0 W/m² | - |
| 1778049894 | 1.67° C | 66% | 961.8 hPa | 0 mm | 0.45 m/s, 283° | 0 W/m² | - |
| 1778049603 | 1.67° C | 65% | 961.8 hPa | 0 mm | 0.45 m/s, 233° | 0 W/m² | - |
| 1778049296 | 1.11° C | 65% | 961.9 hPa | 0 mm | 0.45 m/s, 286° | 0 W/m² | - |
| 1778049003 | 1.11° C | 64% | 962.1 hPa | 0 mm | 0.45 m/s, 329° | 0 W/m² | - |
| 1778048818 | 1.11° C | 64% | 962.3 hPa | 0 mm | 0.45 m/s, 309° | 0 W/m² | - |
| 1778048394 | 1.11° C | 66% | 962.4 hPa | 0 mm | 0 m/s | 0 W/m² | - |
| 1778048094 | 1.11° C | 66% | 962.5 hPa | 0 mm | 0 m/s | 0 W/m² | - |
| 1778047794 | 1.11° C | 65% | 962.4 hPa | 0 mm | 0 m/s | 0 W/m² | - |
| 1778047495 | 1.11° C | 64% | 962.2 hPa | 0 mm | 0.45 m/s, 0° | 0 W/m² | - |
| 1778047191 | 1.11° C | 65% | 962.2 hPa | 0 mm | 0 m/s | 0 W/m² | - |
| 1778047015 | 1.11° C | 66% | 962.2 hPa | 0 mm | 0 m/s | 0 W/m² | - |
| 1778046591 | 1.67° C | 65% | 962.1 hPa | 0 mm | 0.45 m/s, 0° | 0 W/m² | - |
| 1778046412 | 1.67° C | 65% | 962.1 hPa | 0 mm | 0.45 m/s, 307° | 0 W/m² | - |
| 1778045988 | 1.67° C | 65% | 962.2 hPa | 0 mm | 0 m/s | 0 W/m² | - |
| 1778045688 | 1.67° C | 64% | 962.2 hPa | 0 mm | 0 m/s | 0 W/m² | - |
| 1778045389 | 2.22° C | 63% | 962.1 hPa | 0 mm | 0 m/s | 0 W/m² | - |
| 1778045085 | 2.22° C | 62% | 962.1 hPa | 0 mm | 0 m/s | 0 W/m² | - |
| 1778044785 | 2.78° C | 60% | 961.9 hPa | 0 mm | 0.45 m/s, 0° | 0 W/m² | - |
| 1778044486 | 2.78° C | 60% | 961.8 hPa | 0 mm | 0.89 m/s, 307° | 0 W/m² | - |
| 1778044185 | 2.78° C | 59% | 961.7 hPa | 0 mm | 0.89 m/s, 0° | 0 W/m² | - |
| 1778043886 | 2.78° C | 59% | 961.6 hPa | 0 mm | 0.89 m/s, 311° | 0 W/m² | - |
* Rain latest hour (hover to see other rain measurements)
** Current wind speed in m/s (hover to see current wind gust speed)